GW4285 Weather Reports


Display with metric or nautical units.
time (UTC)temp
F
wind
direction
speed
MPH
gust
MPH
rain 1hr
in
rain 24hr
in
rain mn
in
humidity
%
barometer
mb
20260502130323 51 309 0.0 0.0 0.00 0.00 0.00 97 1012.1
20260502123809 51 227 0.0 0.0 0.00 0.00 0.00 97 1012.1
20260502123306 51 258 0.0 0.0 0.00 0.00 0.00 97 1012.3
20260502122803 50 258 0.0 1.0 0.00 0.00 0.00 97 1012.2
20260502122259 51 205 0.0 0.0 0.00 0.00 0.00 97 1012.2
20260502121757 50 205 0.0 0.0 0.00 0.00 0.00 97 1012.0
20260502121254 50 205 0.0 0.0 0.00 0.00 0.00 97 1012.0
20260502120751 50 209 0.0 0.0 0.00 0.00 0.00 97 1012.0
20260502120248 50 209 0.0 0.0 0.00 0.00 0.00 97 1012.1
20260502115746 50 292 0.0 0.0 0.00 0.00 0.00 97 1012.2
20260502115242 50 124 0.0 0.0 0.00 0.00 0.00 97 1012.2
20260502114738 50 134 0.0 0.0 0.00 0.00 0.00 98 1012.2
20260502114235 50 134 0.0 0.0 0.00 0.00 0.00 97 1012.2
20260502113732 50 134 0.0 0.0 0.00 0.00 0.00 98 1012.0
20260502113230 50 134 0.0 0.0 0.00 0.00 0.00 98 1012.1
20260502112728 50 134 0.0 0.0 0.00 0.00 0.00 98 1012.2
20260502112226 50 134 0.0 0.0 0.00 0.00 0.00 98 1012.0
20260502111722 50 134 0.0 1.0 0.00 0.00 0.00 98 1012.0
20260502111220 50 134 0.0 0.0 0.00 0.00 0.00 98 1012.0
20260502110717 50 134 0.0 3.0 0.00 0.00 0.00 98 1012.0
20260502110215 50 213 1.0 1.0 0.00 0.00 0.00 98 1012.2
20260502105713 50 213 0.0 0.0 0.00 0.00 0.00 98 1012.3
20260502105209 51 240 0.0 1.0 0.00 0.00 0.00 98 1012.2
20260502104707 51 182 0.0 3.0 0.00 0.00 0.00 98 1012.1
20260502104204 51 254 0.0 0.0 0.00 0.00 0.00 98 1012.3
20260502103701 50 235 0.0 0.0 0.00 0.00 0.00 98 1012.1
20260502103159 50 10 0.0 3.0 0.00 0.00 0.00 98 1012.2
20260502102655 50 216 0.0 0.0 0.00 0.00 0.00 98 1012.2
20260502102152 50 216 0.0 1.0 0.00 0.00 0.00 98 1012.3
20260502101650 50 324 0.0 3.0 0.00 0.00 0.00 98 1012.3
20260502101148 50 163 0.0 1.0 0.00 0.00 0.00 98 1012.3
20260502100646 50 162 0.0 0.0 0.00 0.00 0.00 98 1012.2
20260502100144 50 134 0.0 3.0 0.00 0.00 0.00 98 1012.3
20260502091118 50 251 0.0 0.0 0.00 0.00 0.00 98 1012.7
20260502090615 50 211 1.0 1.0 0.00 0.00 0.00 98 1012.8
20260502090113 50 34 1.0 1.0 0.00 0.00 0.00 98 1012.8
20260502071510 51 249 0.0 1.0 0.00 0.00 0.00 99 1013.3
20260502071008 50 257 0.0 1.0 0.00 0.00 0.00 99 1013.1
20260502070506 50 226 0.0 3.0 0.00 0.00 0.00 99 1013.2
20260502070004 50 245 0.0 1.0 0.00 0.00 0.00 99 1013.0
20260502065502 51 211 2.0 3.0 0.00 0.00 0.00 99 1013.1
20260502065000 51 233 1.0 3.0 0.00 0.00 0.00 99 1013.2
20260502064458 51 260 0.0 0.0 0.00 0.00 0.00 99 1013.2
20260502063954 51 241 0.0 0.0 0.00 0.00 0.00 99 1013.1
20260502063452 51 236 0.0 0.0 0.00 0.00 0.00 99 1013.1
20260502062950 51 249 0.0 1.0 0.00 0.00 0.00 98 1013.1
20260502062446 51 257 1.0 5.0 0.00 0.00 0.00 98 1013.1
20260502061945 51 255 1.0 1.0 0.00 0.00 0.00 98 1013.1
20260502061443 51 258 0.0 0.0 0.00 0.00 0.00 98 1013.2
20260502060938 51 251 0.0 1.0 0.00 0.00 0.00 98 1013.3
20260502060434 51 228 0.0 3.0 0.00 0.00 0.00 98 1013.2
20260502055931 52 215 1.0 4.0 0.00 0.00 0.00 98 1013.3
20260502055429 51 247 0.0 0.0 0.00 0.00 0.00 98 1013.3
20260502054928 51 263 1.0 1.0 0.00 0.00 0.00 98 1013.3
20260502054426 51 250 0.0 3.0 0.00 0.00 0.00 98 1013.4
20260502053923 51 270 0.0 0.0 0.00 0.00 0.00 98 1013.4
20260502053420 51 241 0.0 5.0 0.00 0.00 0.00 97 1013.4
20260502052918 52 247 0.0 0.0 0.00 0.00 0.00 98 1013.4
20260502052416 51 255 0.0 0.0 0.00 0.00 0.00 98 1013.4
20260502051913 51 255 1.0 1.0 0.00 0.00 0.00 98 1013.5
20260502051412 51 244 0.0 3.0 0.00 0.00 0.00 98 1013.5
20260502050908 51 262 2.0 3.0 0.00 0.00 0.00 98 1013.6
20260502050404 51 253 2.0 3.0 0.00 0.00 0.00 98 1013.4
20260502045902 51 246 0.0 0.0 0.00 0.00 0.00 98 1013.4
20260502045358 51 252 0.0 0.0 0.00 0.00 0.00 98 1013.4
20260502044855 51 261 0.0 4.0 0.00 0.00 0.00 97 1013.6
20260502044351 52 240 1.0 4.0 0.00 0.00 0.00 97 1013.5
20260502043848 52 261 0.0 1.0 0.00 0.00 0.00 97 1013.5
20260502043346 52 268 1.0 1.0 0.00 0.00 0.00 97 1013.5
20260502042840 52 255 0.0 0.0 0.00 0.00 0.00 97 1013.5
20260502042338 52 245 3.0 3.0 0.00 0.00 0.00 97 1013.4
20260502041835 52 251 2.0 3.0 0.00 0.00 0.00 96 1013.4
20260502041332 52 247 2.0 4.0 0.00 0.00 0.00 96 1013.3
20260502040830 52 265 0.0 3.0 0.00 0.00 0.00 96 1013.3
20260502040326 52 260 3.0 3.0 0.00 0.00 0.00 96 1013.3
20260502035822 53 263 0.0 0.0 0.00 0.00 0.00 95 1013.0
20260502035319 53 253 0.0 0.0 0.00 0.00 0.00 95 1013.1
20260502034817 53 253 0.0 0.0 0.00 0.00 0.00 95 1013.1
20260502034315 53 258 0.0 0.0 0.00 0.00 0.00 95 1013.0
20260502033813 53 245 0.0 0.0 0.00 0.00 0.00 95 1013.0
20260502033310 53 259 0.0 0.0 0.00 0.00 0.00 95 1012.8
20260502032806 53 260 0.0 0.0 0.00 0.00 0.00 95 1012.7
20260502032305 53 254 0.0 0.0 0.00 0.00 0.00 95 1012.7
20260502031800 53 253 0.0 0.0 0.00 0.00 0.00 94 1012.7
20260502031258 53 253 0.0 0.0 0.00 0.00 0.00 94 1012.7
20260502030756 53 253 0.0 0.0 0.00 0.00 0.00 94 1012.6
20260502030254 53 253 0.0 0.0 0.00 0.00 0.00 93 1012.7
20260502025752 54 253 0.0 0.0 0.00 0.00 0.00 93 1012.6
20260502025250 54 261 0.0 3.0 0.00 0.00 0.00 93 1012.7
20260502024747 54 258 3.0 4.0 0.00 0.00 0.00 92 1012.6
20260502024245 55 263 1.0 1.0 0.00 0.00 0.00 90 1012.8
20260502023743 55 287 0.0 1.0 0.00 0.00 0.00 89 1012.7
20260502023240 56 262 2.0 3.0 0.00 0.00 0.00 87 1012.8
20260502022737 57 251 1.0 3.0 0.00 0.00 0.00 87 1012.7
20260502022233 58 252 0.0 1.0 0.00 0.00 0.00 85 1012.8
20260502021730 58 265 0.0 0.0 0.00 0.00 0.00 84 1012.7
20260502021227 59 252 2.0 3.0 0.00 0.00 0.00 83 1012.7
20260502020724 59 259 0.0 1.0 0.00 0.00 0.00 83 1012.7
20260502020222 59 247 0.0 1.0 0.00 0.00 0.00 82 1012.7
20260502015720 59 231 0.0 3.0 0.00 0.00 0.00 83 1012.6
20260502015215 60 244 1.0 3.0 0.00 0.00 0.00 82 1012.7
20260502014713 60 227 1.0 4.0 0.00 0.00 0.00 82 1012.8
20260502014210 59 259 3.0 4.0 0.00 0.00 0.00 82 1012.7
20260502013706 60 226 1.0 4.0 0.00 0.00 0.00 82 1012.7
20260502013201 60 244 0.0 1.0 0.00 0.00 0.00 81 1012.8
20260502012659 61 224 1.0 5.0 0.00 0.00 0.00 80 1012.8
20260502012157 61 248 0.0 4.0 0.00 0.00 0.00 80 1012.8
20260502011653 62 156 1.0 3.0 0.00 0.00 0.00 78 1012.7
20260502011149 64 290 3.0 5.0 0.00 0.00 0.00 76 1012.7
20260502010647 64 257 0.0 4.0 0.00 0.00 0.00 75 1012.6
20260502010143 65 275 4.0 7.0 0.00 0.00 0.00 71 1012.8
20260502005641 66 250 4.0 5.0 0.00 0.00 0.00 68 1012.8
20260502005138 66 253 1.0 4.0 0.00 0.00 0.00 71 1012.9
20260502004634 66 245 1.0 3.0 0.00 0.00 0.00 71 1012.9
20260502004131 66 259 3.0 4.0 0.00 0.00 0.00 70 1012.9
20260502003629 66 280 1.0 4.0 0.00 0.00 0.00 70 1012.9
20260502003125 66 249 4.0 7.0 0.00 0.00 0.00 70 1013.0
20260502002621 67 251 2.0 5.0 0.00 0.00 0.00 69 1012.9
20260502002120 66 254 2.0 4.0 0.00 0.00 0.00 73 1012.9
20260502001617 66 245 6.0 7.0 0.00 0.00 0.00 72 1012.9
20260502001114 66 256 3.0 5.0 0.00 0.00 0.00 73 1012.8
20260502000612 65 240 1.0 5.0 0.00 0.00 0.00 74 1012.9
20260502000109 66 242 7.0 8.0 0.00 0.00 0.00 74 1012.9
20260501235605 66 274 5.0 10.0 0.00 0.00 0.00 74 1012.9
20260501235101 66 245 3.0 7.0 0.00 0.00 0.00 73 1012.9
20260501234556 66 251 5.0 7.0 0.00 0.00 0.00 72 1012.8
20260501234054 66 256 4.0 7.0 0.00 0.00 0.00 72 1012.9
20260501233553 68 259 2.0 4.0 0.00 0.00 0.00 71 1012.8
20260501233049 67 286 3.0 7.0 0.00 0.00 0.00 71 1013.0
20260501232545 66 255 4.0 8.0 0.00 0.00 0.00 73 1013.0
20260501232043 66 255 7.0 11.0 0.00 0.00 0.00 75 1013.0
20260501231540 68 252 6.0 8.0 0.00 0.00 0.00 70 1013.1
20260501231039 64 262 3.0 8.0 0.00 0.00 0.00 76 1013.1
20260501230537 64 255 4.0 7.0 0.00 0.00 0.00 77 1013.0
20260501230035 65 262 3.0 8.0 0.00 0.00 0.00 76 1013.2
20260501225532 65 255 5.0 7.0 0.00 0.00 0.00 75 1013.2
20260501225028 67 245 8.0 10.0 0.00 0.00 0.00 76 1013.3
20260501224526 67 263 4.0 8.0 0.00 0.00 0.00 73 1013.3
20260501224023 68 225 7.0 10.0 0.00 0.00 0.00 74 1013.3
20260501223519 69 250 6.0 8.0 0.00 0.00 0.00 73 1013.4
20260501223015 68 248 4.0 5.0 0.00 0.00 0.00 74 1013.5
20260501222512 70 229 6.0 7.0 0.00 0.00 0.00 71 1013.6
20260501222009 69 248 3.0 10.0 0.00 0.00 0.00 75 1013.5
20260501221505 70 265 3.0 4.0 0.00 0.00 0.00 72 1013.6
20260501221003 70 263 7.0 10.0 0.00 0.00 0.00 72 1013.7
20260501220500 72 280 3.0 4.0 0.00 0.00 0.00 67 1013.8
20260501215956 71 244 3.0 8.0 0.00 0.00 0.00 70 1013.8
20260501215453 73 277 5.0 7.0 0.00 0.00 0.00 66 1013.8
20260501214948 71 271 3.0 5.0 0.00 0.00 0.00 68 1013.8
20260501214444 72 247 2.0 7.0 0.00 0.00 0.00 69 1013.9
20260501213939 75 258 0.0 4.0 0.00 0.00 0.00 63 1013.9
20260501213437 72 242 1.0 3.0 0.00 0.00 0.00 68 1014.0
20260501212932 72 278 1.0 5.0 0.00 0.00 0.00 65 1013.9
20260501212430 72 247 5.0 7.0 0.00 0.00 0.00 62 1014.0
20260501211926 71 266 2.0 4.0 0.00 0.00 0.00 64 1014.0
20260501211424 71 277 5.0 7.0 0.00 0.00 0.00 65 1014.0
20260501210921 71 272 3.0 3.0 0.00 0.00 0.00 63 1014.0
20260501210418 70 248 1.0 5.0 0.00 0.00 0.00 67 1014.0
20260501205914 72 254 2.0 5.0 0.00 0.00 0.00 64 1014.0
20260501205411 70 254 0.0 3.0 0.00 0.00 0.00 66 1014.1
20260501204908 72 249 5.0 7.0 0.00 0.00 0.00 62 1014.3
20260501204404 71 342 0.0 3.0 0.00 0.00 0.00 63 1014.2
20260501203900 71 246 2.0 3.0 0.00 0.00 0.00 65 1014.2
20260501203358 71 260 1.0 3.0 0.00 0.00 0.00 65 1014.3
20260501202855 71 298 1.0 1.0 0.00 0.00 0.00 64 1014.4
20260501202352 71 225 0.0 1.0 0.00 0.00 0.00 65 1014.4
20260501201849 69 245 2.0 4.0 0.00 0.00 0.00 68 1014.5
20260501201346 70 262 2.0 7.0 0.00 0.00 0.00 67 1014.5
20260501200842 69 241 3.0 4.0 0.00 0.00 0.00 68 1014.5
20260501200339 68 261 2.0 4.0 0.00 0.00 0.00 70 1014.5
20260501195837 69 266 1.0 3.0 0.00 0.00 0.00 69 1014.6
20260501195332 68 263 3.0 5.0 0.00 0.00 0.00 71 1014.7
20260501194828 67 228 2.0 5.0 0.00 0.00 0.00 74 1014.6
20260501194325 68 236 1.0 1.0 0.00 0.00 0.00 73 1014.7
20260501193821 67 260 1.0 3.0 0.00 0.00 0.00 72 1014.7
20260501193320 66 249 3.0 3.0 0.00 0.00 0.00 75 1014.8
20260501192817 65 255 3.0 4.0 0.00 0.00 0.00 76 1014.8
20260501192314 66 247 3.0 5.0 0.00 0.00 0.00 74 1014.9
20260501191810 65 232 2.0 3.0 0.00 0.00 0.00 76 1014.9
20260501191308 65 235 4.0 4.0 0.00 0.00 0.00 76 1015.0
20260501190805 65 247 1.0 1.0 0.00 0.00 0.00 75 1015.0
20260501190300 65 249 0.0 3.0 0.00 0.00 0.00 76 1014.9
20260501185756 64 237 1.0 3.0 0.00 0.00 0.00 77 1015.1
20260501185252 64 244 1.0 3.0 0.00 0.00 0.00 77 1015.2
20260501184748 62 251 3.0 4.0 0.00 0.00 0.00 80 1015.1
20260501184243 61 259 1.0 3.0 0.00 0.00 0.00 82 1015.3
20260501183740 62 249 3.0 5.0 0.00 0.00 0.00 82 1015.2
20260501183237 61 257 2.0 3.0 0.00 0.00 0.00 81 1015.3
20260501182733 62 145 1.0 1.0 0.00 0.00 0.00 82 1015.5
20260501182230 60 248 1.0 4.0 0.00 0.00 0.00 83 1015.5
20260501181727 59 254 3.0 5.0 0.00 0.00 0.00 84 1015.5
20260501181225 59 254 3.0 5.0 0.00 0.00 0.00 86 1015.3
20260501180722 59 271 1.0 3.0 0.00 0.00 0.00 86 1015.5
20260501180218 59 285 0.0 1.0 0.00 0.00 0.00 85 1015.3
20260501175715 58 259 1.0 1.0 0.00 0.00 0.00 86 1015.4
20260501175212 57 263 0.0 4.0 0.00 0.00 0.00 89 1015.4
20260501174708 58 279 3.0 3.0 0.00 0.00 0.00 88 1015.2
20260501174206 57 221 1.0 3.0 0.00 0.00 0.00 87 1015.2
20260501173704 56 256 0.0 1.0 0.00 0.00 0.00 90 1015.2
20260501173200 56 244 3.0 4.0 0.00 0.00 0.00 90 1015.4
20260501172656 55 258 2.0 4.0 0.00 0.00 0.00 93 1015.4
20260501172151 57 263 3.0 3.0 0.00 0.00 0.00 89 1015.3
20260501171648 55 144 0.0 1.0 0.00 0.00 0.00 91 1015.3
20260501171145 55 235 0.0 0.0 0.00 0.00 0.00 91 1015.3
20260501170642 54 281 0.0 1.0 0.00 0.00 0.00 93 1015.2
20260501170138 54 319 0.0 0.0 0.00 0.00 0.00 95 1015.2
20260501165636 53 264 0.0 3.0 0.00 0.00 0.00 97 1015.3
20260501165133 52 264 0.0 0.0 0.00 0.00 0.00 98 1015.3
20260501164631 52 252 2.0 3.0 0.00 0.00 0.00 98 1015.4
20260501164128 52 268 2.0 3.0 0.00 0.00 0.00 98 1015.4
20260501163624 52 253 0.0 0.0 0.00 0.00 0.00 99 1015.4
20260501163121 51 261 0.0 0.0 0.00 0.00 0.00 99 1015.5
20260501162617 51 242 1.0 4.0 0.00 0.00 0.00 99 1015.4
20260501162114 51 246 1.0 4.0 0.00 0.00 0.00 99 1015.4
20260501161612 51 254 1.0 3.0 0.00 0.00 0.00 99 1015.3
20260501161108 51 271 2.0 3.0 0.00 0.00 0.00 99 1015.3
20260501160605 51 270 0.0 0.0 0.00 0.00 0.00 99 1015.3
20260501155558 50 255 0.0 1.0 0.00 0.00 0.00 99 1015.3
20260501155056 50 266 2.0 3.0 0.00 0.00 0.00 99 1015.1
20260501154553 51 259 1.0 1.0 0.00 0.00 0.00 99 1015.1
20260501154050 51 249 0.0 0.0 0.00 0.00 0.00 99 1015.0
20260501153547 51 359 0.0 1.0 0.00 0.00 0.00 99 1015.1
20260501153044 50 0 0.0 0.0 0.00 0.00 0.00 99 1014.9
20260501152541 50 0 0.0 0.0 0.00 0.00 0.00 99 1014.9
20260501152038 49 0 0.0 0.0 0.00 0.00 0.00 99 1014.9
20260501151535 49 0 0.0 0.0 0.00 0.00 0.00 99 1014.9
20260501151026 49 0 2.0 3.0 0.00 0.00 0.00 99 1014.8
20260501150526 50 244 0.0 0.0 0.00 0.00 0.00 99 1014.8
20260501150024 50 44 1.0 1.0 0.00 0.00 0.00 99 1014.7
20260501145520 49 249 0.0 0.0 0.00 0.00 0.00 99 1014.6
20260501145018 49 294 0.0 0.0 0.00 0.00 0.00 99 1014.7
20260501144514 49 278 0.0 0.0 0.00 0.00 0.00 99 1014.8
20260501144009 49 271 0.0 0.0 0.00 0.00 0.00 99 1014.8
20260501143506 49 257 0.0 0.0 0.00 0.00 0.00 99 1014.7
20260501143002 49 255 0.0 0.0 0.00 0.00 0.00 99 1014.6
20260501142500 49 254 0.0 0.0 0.00 0.00 0.00 99 1014.5